,,PressureMeas_1m,,PRMeasQMR101_1,,RHStat155_1m_1,,SRMeasQMS101R_1m,,TAStat155_1m_1,,GenWind_1,,GenWind_1,
2018-10-06, 00:00:06,VALID,918.345,VALID,0.0,VALID,99.23,VALID,0.026,VALID,20.762,INVALID,360.0,VALID,0.0,
2018-10-06, 00:01:06,VALID,918.341,VALID,0.0,VALID,99.235,VALID,0.021,VALID,20.702,INVALID,360.0,VALID,0.0,
2018-10-06, 00:02:06,VALID,918.307,VALID,0.0,VALID,99.28,VALID,0.023,VALID,20.719,INVALID,360.0,VALID,0.0,
2018-10-06, 00:03:06,VALID,918.307,VALID,0.0,VALID,99.297,VALID,0.01,VALID,20.724,INVALID,360.0,VALID,0.0,
2018-10-06, 00:04:06,VALID,918.293,VALID,0.0,VALID,99.276,VALID,0.009,VALID,20.713,VALID,142.0,VALID,0.0,
2018-10-06, 00:05:06,VALID,918.259,VALID,0.0,VALID,99.289,VALID,0.018,VALID,20.707,VALID,142.0,VALID,0.0,
2018-10-06, 00:06:06,VALID,918.257,VALID,0.0,VALID,99.297,VALID,0.01,VALID,20.692,VALID,142.0,VALID,0.0,
2018-10-06, 00:07:06,VALID,918.234,VALID,0.0,VALID,99.278,VALID,-0.001,VALID,20.66,VALID,142.0,VALID,0.0,
2018-10-06, 00:08:06,VALID,918.215,VALID,0.0,VALID,99.275,VALID,0.009,VALID,20.674,VALID,142.0,VALID,0.0,
2018-10-06, 00:09:06,VALID,918.196,VALID,0.0,VALID,99.29,VALID,0.016,VALID,20.696,VALID,138.0,VALID,0.0,
2018-10-06, 00:10:06,VALID,918.17,VALID,0.0,VALID,99.286,VALID,0.017,VALID,20.66,VALID,132.0,VALID,0.0,
2018-10-06, 00:11:06,VALID,918.138,VALID,0.0,VALID,99.286,VALID,-0.011,VALID,20.691,VALID,134.0,VALID,0.0,
2018-10-06, 00:12:06,VALID,918.119,VALID,0.0,VALID,99.3,VALID,-0.001,VALID,20.744,VALID,134.0,VALID,0.0,
2018-10-06, 00:13:06,VALID,918.115,VALID,0.0,VALID,99.285,VALID,-0.0,VALID,20.749,VALID,140.0,VALID,0.0,
2018-10-06, 00:14:06,VALID,918.114,VALID,0.0,VALID,99.309,VALID,0.007,VALID,20.738,VALID,157.0,VALID,0.0,
2018-10-06, 00:15:06,VALID,918.067,VALID,0.0,VALID,99.306,VALID,0.003,VALID,20.736,VALID,157.0,VALID,0.0,
2018-10-06, 00:16:06,VALID,918.044,VALID,0.0,VALID,99.287,VALID,0.02,VALID,20.71,INVALID,360.0,VALID,0.0,
2018-10-06, 00:17:06,VALID,918.027,VALID,0.0,VALID,99.291,VALID,0.015,VALID,20.681,INVALID,360.0,VALID,0.0,
2018-10-06, 00:18:06,VALID,918.033,VALID,0.0,VALID,99.289,VALID,-0.001,VALID,20.677,INVALID,360.0,VALID,0.0,
2018-10-06, 00:19:06,VALID,917.999,VALID,0.0,VALID,99.303,VALID,0.021,VALID,20.667,INVALID,360.0,VALID,0.0,
2018-10-06, 00:20:06,VALID,917.995,VALID,0.0,VALID,99.299,VALID,0.009,VALID,20.655,INVALID,360.0,VALID,0.0,
2018-10-06, 00:21:06,VALID,917.986,VALID,0.0,VALID,99.296,VALID,0.027,VALID,20.65,INVALID,360.0,VALID,0.0,
2018-10-06, 00:22:06,VALID,917.993,VALID,0.0,VALID,99.289,VALID,0.005,VALID,20.656,INVALID,360.0,VALID,0.0,
2018-10-06, 00:23:06,VALID,917.948,VALID,0.0,VALID,99.29,VALID,0.01,VALID,20.65,INVALID,360.0,VALID,0.0,
2018-10-06, 00:24:06,VALID,917.897,VALID,0.0,VALID,99.279,VALID,-0.007,VALID,20.661,INVALID,360.0,VALID,0.0,
2018-10-06, 00:25:06,VALID,917.903,VALID,0.0,VALID,99.29,VALID,0.008,VALID,20.69,INVALID,360.0,VALID,0.0,
2018-10-06, 00:26:06,VALID,917.932,VALID,0.0,VALID,99.302,VALID,-0.0,VALID,20.704,INVALID,360.0,VALID,0.0,
2018-10-06, 00:27:06,VALID,917.928,VALID,0.0,VALID,99.274,VALID,0.002,VALID,20.703,VALID,155.0,VALID,0.0,
2018-10-06, 00:28:06,VALID,917.915,VALID,0.0,VALID,99.308,VALID,0.011,VALID,20.712,VALID,155.0,VALID,0.0,
2018-10-06, 00:29:06,VALID,917.873,VALID,0.0,VALID,99.311,VALID,0.008,VALID,20.705,VALID,155.0,VALID,0.0,
2018-10-06, 00:30:06,VALID,917.898,VALID,0.0,VALID,99.3,VALID,0.008,VALID,20.697,VALID,155.0,VALID,0.0,
2018-10-06, 00:31:06,VALID,917.894,VALID,0.0,VALID,99.307,VALID,0.016,VALID,20.7,VALID,155.0,VALID,0.0,
2018-10-06, 00:32:06,VALID,917.883,VALID,0.0,VALID,99.309,VALID,0.011,VALID,20.717,VALID,155.0,VALID,0.0,
2018-10-06, 00:33:06,VALID,917.878,VALID,0.0,VALID,99.309,VALID,-0.006,VALID,20.712,VALID,155.0,VALID,0.0,
2018-10-06, 00:34:06,VALID,917.855,VALID,0.0,VALID,99.308,VALID,0.01,VALID,20.703,VALID,155.0,VALID,0.0,
2018-10-06, 00:35:06,VALID,917.854,VALID,0.0,VALID,99.29,VALID,0.001,VALID,20.72,VALID,155.0,VALID,0.0,
2018-10-06, 00:36:06,VALID,917.82,VALID,0.0,VALID,99.286,VALID,0.006,VALID,20.738,VALID,147.0,VALID,0.0,
2018-10-06, 00:37:06,VALID,917.804,VALID,0.0,VALID,99.318,VALID,0.011,VALID,20.748,VALID,139.0,VALID,0.0,
2018-10-06, 00:38:06,VALID,917.778,VALID,0.0,VALID,99.311,VALID,-0.006,VALID,20.768,VALID,139.0,VALID,0.0,
2018-10-06, 00:39:06,VALID,917.768,VALID,0.0,VALID,99.308,VALID,0.006,VALID,20.751,VALID,140.0,VALID,0.0,
2018-10-06, 00:40:06,VALID,917.76,VALID,0.0,VALID,99.299,VALID,0.011,VALID,20.742,VALID,140.0,VALID,0.0,
2018-10-06, 00:41:06,VALID,917.728,VALID,0.0,VALID,99.301,VALID,-0.001,VALID,20.759,VALID,139.0,VALID,0.0,
2018-10-06, 00:42:06,VALID,917.699,VALID,0.0,VALID,99.326,VALID,-0.008,VALID,20.764,VALID,139.0,VALID,0.0,
2018-10-06, 00:43:06,VALID,917.662,VALID,0.0,VALID,99.296,VALID,-0.007,VALID,20.76,VALID,139.0,VALID,0.0,
2018-10-06, 00:44:06,VALID,917.646,VALID,0.0,VALID,99.308,VALID,-0.003,VALID,20.767,VALID,139.0,VALID,0.0,
2018-10-06, 00:45:06,VALID,917.611,VALID,0.0,VALID,99.309,VALID,-0.004,VALID,20.773,VALID,139.0,VALID,0.0,
2018-10-06, 00:46:06,VALID,917.61,VALID,0.0,VALID,99.305,VALID,0.029,VALID,20.765,VALID,140.0,VALID,0.0,
2018-10-06, 00:47:06,VALID,917.576,VALID,0.0,VALID,99.316,VALID,0.017,VALID,20.786,VALID,155.0,VALID,0.0,
2018-10-06, 00:48:06,VALID,917.563,VALID,0.0,VALID,99.319,VALID,0.017,VALID,20.795,VALID,155.0,VALID,0.0,
2018-10-06, 00:49:06,VALID,917.542,VALID,0.0,VALID,99.299,VALID,0.018,VALID,20.757,VALID,155.0,VALID,0.0,
2018-10-06, 00:50:06,VALID,917.534,VALID,0.0,VALID,99.294,VALID,0.002,VALID,20.746,VALID,155.0,VALID,0.0,
2018-10-06, 00:51:06,VALID,917.537,VALID,0.0,VALID,99.31,VALID,0.005,VALID,20.731,VALID,155.0,VALID,0.0,
2018-10-06, 00:52:06,VALID,917.523,VALID,0.0,VALID,99.302,VALID,0.015,VALID,20.721,VALID,124.0,VALID,0.0,
2018-10-06, 00:53:06,VALID,917.519,VALID,0.0,VALID,99.3,VALID,-0.001,VALID,20.729,VALID,78.0,VALID,0.0,
2018-10-06, 00:54:06,VALID,917.491,VALID,0.0,VALID,99.312,VALID,-0.007,VALID,20.748,VALID,66.0,VALID,0.0,
2018-10-06, 00:55:06,VALID,917.499,VALID,0.0,VALID,99.3,VALID,0.015,VALID,20.738,VALID,56.0,VALID,0.0,
2018-10-06, 00:56:06,VALID,917.463,VALID,0.0,VALID,99.278,VALID,-0.002,VALID,20.71,VALID,58.0,VALID,0.0,
2018-10-06, 00:57:06,VALID,917.466,VALID,0.0,VALID,99.284,VALID,0.002,VALID,20.697,VALID,61.0,VALID,0.0,
2018-10-06, 00:58:06,VALID,917.448,VALID,0.0,VALID,99.291,VALID,0.011,VALID,20.674,VALID,61.0,VALID,0.0,
2018-10-06, 00:59:06,VALID,917.447,VALID,0.0,VALID,99.299,VALID,0.01,VALID,20.666,VALID,61.0,VALID,0.0,
2018-10-06, 01:00:06,VALID,917.442,VALID,0.0,VALID,99.295,VALID,0.012,VALID,20.632,VALID,61.0,VALID,0.0,
2018-10-06, 01:01:06,VALID,917.45,VALID,0.0,VALID,99.271,VALID,-0.003,VALID,20.607,VALID,57.0,VALID,0.0,
2018-10-06, 01:02:06,VALID,917.438,VALID,0.0,VALID,99.282,VALID,0.007,VALID,20.592,VALID,45.0,VALID,0.0,
2018-10-06, 01:03:06,VALID,917.434,VALID,0.0,VALID,99.296,VALID,0.012,VALID,20.584,VALID,29.0,VALID,0.0,
2018-10-06, 01:04:06,VALID,917.412,VALID,0.0,VALID,99.295,VALID,-0.009,VALID,20.581,VALID,15.0,VALID,0.0,
2018-10-06, 01:05:06,VALID,917.397,VALID,0.0,VALID,99.291,VALID,-0.009,VALID,20.577,VALID,31.0,VALID,0.0,
2018-10-06, 01:06:06,VALID,917.362,VALID,0.0,VALID,99.317,VALID,0.014,VALID,20.594,VALID,22.0,VALID,0.0,
2018-10-06, 01:07:06,VALID,917.325,VALID,0.0,VALID,99.304,VALID,-0.008,VALID,20.619,VALID,24.0,VALID,0.0,
2018-10-06, 01:08:06,VALID,917.276,VALID,0.0,VALID,99.307,VALID,0.015,VALID,20.615,VALID,27.0,VALID,0.0,
2018-10-06, 01:09:06,VALID,917.251,VALID,0.0,VALID,99.312,VALID,0.036,VALID,20.599,VALID,31.0,VALID,0.0,
2018-10-06, 01:10:06,VALID,917.201,VALID,0.0,VALID,99.292,VALID,0.031,VALID,20.591,VALID,53.0,VALID,0.0,
2018-10-06, 01:11:06,VALID,917.164,VALID,0.0,VALID,99.289,VALID,0.034,VALID,20.572,VALID,52.0,VALID,0.0,
2018-10-06, 01:12:06,VALID,917.153,VALID,0.0,VALID,99.308,VALID,0.055,VALID,20.585,VALID,12.0,VALID,0.0,
2018-10-06, 01:13:06,VALID,917.136,VALID,0.0,VALID,99.3,VALID,0.036,VALID,20.589,VALID,2.0,VALID,0.0,
2018-10-06, 01:14:06,VALID,917.115,VALID,0.0,VALID,99.3,VALID,0.04,VALID,20.568,VALID,352.0,VALID,0.0,
2018-10-06, 01:15:06,VALID,917.135,VALID,0.0,VALID,99.326,VALID,0.06,VALID,20.567,VALID,14.0,VALID,0.0,
2018-10-06, 01:16:06,VALID,917.125,VALID,0.0,VALID,99.313,VALID,0.056,VALID,20.576,VALID,22.0,VALID,0.0,
2018-10-06, 01:17:06,VALID,917.121,VALID,0.0,VALID,99.312,VALID,0.041,VALID,20.596,VALID,22.0,VALID,0.0,
2018-10-06, 01:18:06,VALID,917.109,VALID,0.0,VALID,99.307,VALID,0.035,VALID,20.602,VALID,47.0,VALID,0.0,
2018-10-06, 01:19:06,VALID,917.102,VALID,0.0,VALID,99.3,VALID,0.049,VALID,20.567,VALID,55.0,VALID,0.0,
2018-10-06, 01:20:06,VALID,917.09,VALID,0.0,VALID,99.292,VALID,0.041,VALID,20.556,VALID,59.0,VALID,0.0,
2018-10-06, 01:21:06,VALID,917.087,VALID,0.0,VALID,99.306,VALID,0.036,VALID,20.534,VALID,95.0,VALID,0.0,
2018-10-06, 01:22:06,VALID,917.08,VALID,0.0,VALID,99.312,VALID,0.02,VALID,20.506,VALID,100.0,VALID,0.0,
2018-10-06, 01:23:06,VALID,917.083,VALID,0.0,VALID,99.277,VALID,0.0,VALID,20.469,VALID,115.0,VALID,0.0,
2018-10-06, 01:24:06,VALID,917.085,VALID,0.0,VALID,99.284,VALID,0.003,VALID,20.422,VALID,131.0,VALID,0.0,
2018-10-06, 01:25:06,VALID,917.077,VALID,0.0,VALID,99.283,VALID,-0.005,VALID,20.399,VALID,146.0,VALID,0.0,
2018-10-06, 01:26:06,VALID,917.076,VALID,0.0,VALID,99.287,VALID,-0.006,VALID,20.4,VALID,133.0,VALID,0.0,
2018-10-06, 01:27:06,VALID,917.079,VALID,0.0,VALID,99.286,VALID,0.01,VALID,20.398,VALID,144.0,VALID,0.0,
2018-10-06, 01:28:06,VALID,917.07,VALID,0.0,VALID,99.299,VALID,0.017,VALID,20.414,VALID,150.0,VALID,0.0,
2018-10-06, 01:29:06,VALID,917.069,VALID,0.0,VALID,99.304,VALID,0.007,VALID,20.42,VALID,141.0,VALID,0.0,
2018-10-06, 01:30:06,VALID,917.06,VALID,0.0,VALID,99.298,VALID,0.023,VALID,20.429,VALID,145.0,VALID,0.0,
2018-10-06, 01:31:06,VALID,917.047,VALID,0.0,VALID,99.311,VALID,0.009,VALID,20.442,VALID,132.0,VALID,0.0,
2018-10-06, 01:32:06,VALID,917.025,VALID,0.0,VALID,99.307,VALID,0.01,VALID,20.453,VALID,135.0,VALID,0.0,
2018-10-06, 01:33:06,VALID,917.019,VALID,0.0,VALID,99.29,VALID,0.003,VALID,20.456,VALID,125.0,VALID,0.0,
2018-10-06, 01:34:06,VALID,917.004,VALID,0.0,VALID,99.289,VALID,0.005,VALID,20.45,VALID,111.0,VALID,0.0,
2018-10-06, 01:35:06,VALID,916.994,VALID,0.0,VALID,99.315,VALID,0.022,VALID,20.432,VALID,121.0,VALID,0.0,
2018-10-06, 01:36:06,VALID,916.957,VALID,0.0,VALID,99.305,VALID,0.004,VALID,20.417,VALID,127.0,VALID,0.0,
2018-10-06, 01:37:06,VALID,916.923,VALID,0.0,VALID,99.31,VALID,0.006,VALID,20.416,VALID,145.0,VALID,0.0,
2018-10-06, 01:38:06,VALID,916.928,VALID,0.0,VALID,99.297,VALID,0.016,VALID,20.408,VALID,132.0,VALID,0.0,
2018-10-06, 01:39:06,VALID,916.889,VALID,0.0,VALID,99.299,VALID,0.018,VALID,20.399,VALID,130.0,VALID,0.0,
2018-10-06, 01:40:06,VALID,916.88,VALID,0.0,VALID,99.299,VALID,0.006,VALID,20.379,VALID,143.0,VALID,0.0,
2018-10-06, 01:41:06,VALID,916.853,VALID,0.0,VALID,99.295,VALID,0.025,VALID,20.36,VALID,144.0,VALID,0.0,
2018-10-06, 01:42:06,VALID,916.843,VALID,0.0,VALID,99.288,VALID,0.022,VALID,20.348,VALID,144.0,VALID,0.0,
2018-10-06, 01:43:06,VALID,916.813,VALID,0.0,VALID,99.294,VALID,0.015,VALID,20.338,VALID,150.0,VALID,0.0,
2018-10-06, 01:44:06,VALID,916.823,VALID,0.0,VALID,99.284,VALID,0.028,VALID,20.335,INVALID,360.0,VALID,0.0,
2018-10-06, 01:45:06,VALID,916.822,VALID,0.0,VALID,99.305,VALID,0.031,VALID,20.329,INVALID,360.0,VALID,0.0,
2018-10-06, 01:46:06,VALID,916.835,VALID,0.0,VALID,99.293,VALID,0.018,VALID,20.312,INVALID,360.0,VALID,0.0,
2018-10-06, 01:47:06,VALID,916.817,VALID,0.0,VALID,99.285,VALID,0.002,VALID,20.289,VALID,155.0,VALID,0.0,
2018-10-06, 01:48:06,VALID,916.798,VALID,0.0,VALID,99.291,VALID,0.022,VALID,20.254,VALID,155.0,VALID,0.0,
2018-10-06, 01:49:06,VALID,916.786,VALID,0.0,VALID,99.283,VALID,0.014,VALID,20.219,VALID,155.0,VALID,0.0,
2018-10-06, 01:50:06,VALID,916.748,VALID,0.0,VALID,99.281,VALID,0.001,VALID,20.2,VALID,153.0,VALID,0.0,
2018-10-06, 01:51:06,VALID,916.737,VALID,0.0,VALID,99.298,VALID,0.038,VALID,20.207,VALID,149.0,VALID,0.0,
2018-10-06, 01:52:06,VALID,916.731,VALID,0.0,VALID,99.293,VALID,0.016,VALID,20.192,VALID,149.0,VALID,0.0,
2018-10-06, 01:53:06,VALID,916.725,VALID,0.0,VALID,99.293,VALID,0.02,VALID,20.163,VALID,149.0,VALID,0.0,
2018-10-06, 01:54:06,VALID,916.697,VALID,0.0,VALID,99.28,VALID,0.019,VALID,20.143,VALID,149.0,VALID,0.0,
2018-10-06, 01:55:06,VALID,916.678,VALID,0.0,VALID,99.294,VALID,0.018,VALID,20.134,VALID,148.0,VALID,0.0,
2018-10-06, 01:56:06,VALID,916.663,VALID,0.0,VALID,99.31,VALID,0.026,VALID,20.176,VALID,153.0,VALID,0.0,
2018-10-06, 01:57:06,VALID,916.632,VALID,0.0,VALID,99.293,VALID,0.028,VALID,20.183,VALID,156.0,VALID,0.0,
2018-10-06, 01:58:06,VALID,916.619,VALID,0.0,VALID,99.291,VALID,0.029,VALID,20.159,VALID,156.0,VALID,0.0,
2018-10-06, 01:59:06,VALID,916.605,VALID,0.0,VALID,99.286,VALID,0.031,VALID,20.123,VALID,156.0,VALID,0.0,
2018-10-06, 02:00:06,VALID,916.616,VALID,0.0,VALID,99.285,VALID,0.027,VALID,20.103,VALID,156.0,VALID,0.0,
2018-10-06, 02:01:06,VALID,916.62,VALID,0.0,VALID,99.239,VALID,0.03,VALID,19.976,VALID,125.0,VALID,0.0,
2018-10-06, 02:02:06,VALID,916.624,VALID,0.0,VALID,99.202,VALID,0.017,VALID,19.839,VALID,44.0,VALID,0.0,
2018-10-06, 02:03:06,VALID,916.636,VALID,0.0,VALID,99.218,VALID,0.017,VALID,19.756,VALID,44.0,VALID,0.0,
2018-10-06, 02:04:06,VALID,916.632,VALID,0.0,VALID,99.275,VALID,0.018,VALID,19.754,VALID,32.0,VALID,0.0,
2018-10-06, 02:05:06,VALID,916.605,VALID,0.0,VALID,99.313,VALID,0.026,VALID,19.803,VALID,31.0,VALID,0.0,
2018-10-06, 02:06:06,VALID,916.621,VALID,0.0,VALID,99.317,VALID,0.022,VALID,19.834,VALID,31.0,VALID,0.0,
2018-10-06, 02:07:06,VALID,916.595,VALID,0.0,VALID,99.315,VALID,0.016,VALID,19.865,VALID,31.0,VALID,0.0,
2018-10-06, 02:08:06,VALID,916.581,VALID,0.0,VALID,99.326,VALID,0.005,VALID,19.878,VALID,31.0,VALID,0.0,
2018-10-06, 02:09:06,VALID,916.619,VALID,0.0,VALID,99.295,VALID,-0.003,VALID,19.822,VALID,31.0,VALID,0.0,
2018-10-06, 02:10:06,VALID,916.608,VALID,0.0,VALID,99.282,VALID,0.003,VALID,19.75,VALID,38.0,VALID,0.0,
2018-10-06, 02:11:06,VALID,916.602,VALID,0.0,VALID,99.29,VALID,0.008,VALID,19.771,VALID,45.0,VALID,0.0,
2018-10-06, 02:12:06,VALID,916.595,VALID,0.0,VALID,99.335,VALID,0.001,VALID,19.853,VALID,59.0,VALID,0.0,
2018-10-06, 02:13:06,VALID,916.576,VALID,0.0,VALID,99.357,VALID,-0.003,VALID,19.925,VALID,63.0,VALID,0.0,
2018-10-06, 02:14:06,VALID,916.566,VALID,0.0,VALID,99.345,VALID,-0.014,VALID,19.943,VALID,75.0,VALID,0.0,
2018-10-06, 02:15:06,VALID,916.547,VALID,0.0,VALID,99.334,VALID,-0.018,VALID,19.934,VALID,80.0,VALID,0.0,
2018-10-06, 02:16:06,VALID,916.525,VALID,0.0,VALID,99.321,VALID,-0.024,VALID,19.922,VALID,83.0,VALID,0.0,
2018-10-06, 02:17:06,VALID,916.503,VALID,0.0,VALID,99.365,VALID,0.006,VALID,19.977,VALID,84.0,VALID,0.0,
2018-10-06, 02:18:06,VALID,916.482,VALID,0.0,VALID,99.355,VALID,0.001,VALID,20.041,VALID,82.0,VALID,0.0,
2018-10-06, 02:19:06,VALID,916.442,VALID,0.0,VALID,99.36,VALID,0.008,VALID,20.081,VALID,78.0,VALID,0.0,
2018-10-06, 02:20:06,VALID,916.431,VALID,0.0,VALID,99.334,VALID,0.005,VALID,20.064,VALID,70.0,VALID,0.0,
2018-10-06, 02:21:06,VALID,916.422,VALID,0.0,VALID,99.336,VALID,0.006,VALID,20.039,VALID,75.0,VALID,0.0,
2018-10-06, 02:22:06,VALID,916.43,VALID,0.0,VALID,99.322,VALID,0.011,VALID,20.011,VALID,65.0,VALID,0.0,
2018-10-06, 02:23:06,VALID,916.424,VALID,0.0,VALID,99.32,VALID,0.007,VALID,20.003,VALID,71.0,VALID,0.0,
2018-10-06, 02:24:06,VALID,916.429,VALID,0.0,VALID,99.307,VALID,0.013,VALID,19.998,VALID,67.0,VALID,0.0,
2018-10-06, 02:25:06,VALID,916.422,VALID,0.0,VALID,99.333,VALID,0.019,VALID,19.982,VALID,63.0,VALID,0.0,
2018-10-06, 02:26:06,VALID,916.401,VALID,0.0,VALID,99.317,VALID,0.017,VALID,19.988,VALID,67.0,VALID,0.0,
2018-10-06, 02:27:06,VALID,916.392,VALID,0.0,VALID,99.331,VALID,0.02,VALID,19.969,VALID,62.0,VALID,0.0,
2018-10-06, 02:28:06,VALID,916.38,VALID,0.0,VALID,99.317,VALID,0.007,VALID,19.944,VALID,63.0,VALID,0.0,
2018-10-06, 02:29:06,VALID,916.378,VALID,0.0,VALID,99.326,VALID,-0.001,VALID,19.919,VALID,62.0,VALID,0.0,
2018-10-06, 02:30:06,VALID,916.36,VALID,0.0,VALID,99.322,VALID,-0.003,VALID,19.917,VALID,65.0,VALID,0.0,
2018-10-06, 02:31:06,VALID,916.343,VALID,0.0,VALID,99.316,VALID,-0.013,VALID,19.902,VALID,57.0,VALID,0.0,
2018-10-06, 02:32:06,VALID,916.338,VALID,0.0,VALID,99.317,VALID,-0.002,VALID,19.886,VALID,69.0,VALID,0.0,
2018-10-06, 02:33:06,VALID,916.348,VALID,0.0,VALID,99.33,VALID,0.013,VALID,19.889,VALID,93.0,VALID,0.0,
2018-10-06, 02:34:06,VALID,916.32,VALID,0.0,VALID,99.329,VALID,0.006,VALID,19.829,VALID,104.0,VALID,0.0,
2018-10-06, 02:35:06,VALID,916.307,VALID,0.0,VALID,99.313,VALID,0.004,VALID,19.784,VALID,114.0,VALID,0.0,
2018-10-06, 02:36:06,VALID,916.292,VALID,0.0,VALID,99.323,VALID,0.009,VALID,19.756,VALID,113.0,VALID,0.0,
2018-10-06, 02:37:06,VALID,916.255,VALID,0.0,VALID,99.326,VALID,0.008,VALID,19.751,VALID,99.0,VALID,0.0,
2018-10-06, 02:38:06,VALID,916.235,VALID,0.0,VALID,99.335,VALID,0.001,VALID,19.768,VALID,82.0,VALID,0.0,
2018-10-06, 02:39:06,VALID,916.216,VALID,0.0,VALID,99.358,VALID,0.034,VALID,19.797,VALID,60.0,VALID,0.0,
2018-10-06, 02:40:06,VALID,916.217,VALID,0.0,VALID,99.349,VALID,0.035,VALID,19.81,VALID,40.0,VALID,0.0,
2018-10-06, 02:41:06,VALID,916.217,VALID,0.0,VALID,99.344,VALID,0.021,VALID,19.803,VALID,42.0,VALID,0.0,
2018-10-06, 02:42:06,VALID,916.203,VALID,0.0,VALID,99.326,VALID,0.009,VALID,19.799,VALID,43.0,VALID,0.0,
2018-10-06, 02:43:06,VALID,916.193,VALID,0.0,VALID,99.368,VALID,0.003,VALID,19.812,VALID,29.0,VALID,0.0,
2018-10-06, 02:44:06,VALID,916.155,VALID,0.0,VALID,99.35,VALID,0.007,VALID,19.815,VALID,40.0,VALID,0.0,
2018-10-06, 02:45:06,VALID,916.144,VALID,0.0,VALID,99.361,VALID,0.006,VALID,19.833,VALID,25.0,VALID,0.0,
2018-10-06, 02:46:06,VALID,916.142,VALID,0.0,VALID,99.349,VALID,-0.0,VALID,19.821,VALID,44.0,VALID,0.0,
2018-10-06, 02:47:06,VALID,916.127,VALID,0.0,VALID,99.35,VALID,0.011,VALID,19.827,VALID,63.0,VALID,0.0,
2018-10-06, 02:48:06,VALID,916.139,VALID,0.0,VALID,99.34,VALID,0.007,VALID,19.79,VALID,64.0,VALID,0.0,
2018-10-06, 02:49:06,VALID,916.144,VALID,0.0,VALID,99.327,VALID,0.011,VALID,19.708,VALID,99.0,VALID,0.0,
2018-10-06, 02:50:06,VALID,916.127,VALID,0.0,VALID,99.321,VALID,0.01,VALID,19.673,VALID,105.0,VALID,0.0,
2018-10-06, 02:51:06,VALID,916.114,VALID,0.0,VALID,99.332,VALID,0.002,VALID,19.658,VALID,133.0,VALID,0.0,
2018-10-06, 02:52:06,VALID,916.112,VALID,0.0,VALID,99.346,VALID,-0.01,VALID,19.677,VALID,145.0,VALID,0.0,
2018-10-06, 02:53:07,VALID,916.129,VALID,0.0,VALID,99.343,VALID,0.02,VALID,19.695,VALID,118.0,VALID,0.0,
2018-10-06, 02:54:07,VALID,916.15,VALID,0.0,VALID,99.335,VALID,0.024,VALID,19.679,VALID,58.0,VALID,0.0,
2018-10-06, 02:55:07,VALID,916.154,VALID,0.0,VALID,99.306,VALID,0.051,VALID,19.598,VALID,52.0,VALID,0.0,
2018-10-06, 02:56:07,VALID,916.142,VALID,0.0,VALID,99.362,VALID,0.051,VALID,19.655,VALID,38.0,VALID,0.0,
2018-10-06, 02:57:07,VALID,916.148,VALID,0.0,VALID,99.355,VALID,0.039,VALID,19.687,VALID,31.0,VALID,0.0,
2018-10-06, 02:58:07,VALID,916.132,VALID,0.0,VALID,99.371,VALID,0.038,VALID,19.703,VALID,25.0,VALID,0.0,
2018-10-06, 02:59:07,VALID,916.128,VALID,0.0,VALID,99.361,VALID,0.02,VALID,19.704,VALID,53.0,VALID,0.0,
2018-10-06, 03:00:07,VALID,916.13,VALID,0.0,VALID,99.359,VALID,0.031,VALID,19.734,VALID,56.0,VALID,0.0,
2018-10-06, 03:01:07,VALID,916.147,VALID,0.0,VALID,99.373,VALID,0.03,VALID,19.752,VALID,56.0,VALID,0.0,
2018-10-06, 03:02:07,VALID,916.143,VALID,0.0,VALID,99.38,VALID,0.041,VALID,19.795,VALID,52.0,VALID,0.0,
2018-10-06, 03:03:07,VALID,916.157,VALID,0.0,VALID,99.357,VALID,0.035,VALID,19.769,VALID,50.0,VALID,0.0,
2018-10-06, 03:04:07,VALID,916.163,VALID,0.0,VALID,99.327,VALID,0.044,VALID,19.722,VALID,50.0,VALID,0.0,
2018-10-06, 03:05:07,VALID,916.162,VALID,0.0,VALID,99.327,VALID,0.036,VALID,19.678,VALID,63.0,VALID,0.0,
2018-10-06, 03:06:07,VALID,916.165,VALID,0.0,VALID,99.356,VALID,0.054,VALID,19.704,VALID,74.0,VALID,0.0,
2018-10-06, 03:07:07,VALID,916.133,VALID,0.0,VALID,99.354,VALID,0.054,VALID,19.675,VALID,83.0,VALID,0.0,
2018-10-06, 03:08:07,VALID,916.141,VALID,0.0,VALID,99.343,VALID,0.002,VALID,19.658,VALID,77.0,VALID,0.0,
2018-10-06, 03:09:07,VALID,916.104,VALID,0.0,VALID,99.319,VALID,-0.001,VALID,19.619,VALID,61.0,VALID,0.0,
2018-10-06, 03:10:07,VALID,916.105,VALID,0.0,VALID,99.351,VALID,0.002,VALID,19.64,VALID,46.0,VALID,0.0,
2018-10-06, 03:11:07,VALID,916.116,VALID,0.0,VALID,99.374,VALID,0.011,VALID,19.705,VALID,50.0,VALID,0.0,
2018-10-06, 03:12:07,VALID,916.127,VALID,0.0,VALID,99.357,VALID,0.006,VALID,19.71,VALID,48.0,VALID,0.0,
2018-10-06, 03:13:07,VALID,916.145,VALID,0.0,VALID,99.354,VALID,-0.006,VALID,19.662,VALID,65.0,VALID,0.0,
2018-10-06, 03:14:07,VALID,916.145,VALID,0.0,VALID,99.361,VALID,-0.001,VALID,19.667,VALID,71.0,VALID,0.0,
2018-10-06, 03:15:07,VALID,916.126,VALID,0.0,VALID,99.354,VALID,-0.007,VALID,19.651,VALID,51.0,VALID,0.0,
2018-10-06, 03:16:07,VALID,916.119,VALID,0.0,VALID,99.324,VALID,-0.015,VALID,19.642,VALID,51.0,VALID,0.0,
2018-10-06, 03:17:07,VALID,916.113,VALID,0.0,VALID,99.363,VALID,-0.018,VALID,19.665,VALID,48.0,VALID,0.0,
2018-10-06, 03:18:07,VALID,916.104,VALID,0.0,VALID,99.352,VALID,-0.011,VALID,19.697,VALID,39.0,VALID,0.0,
2018-10-06, 03:19:07,VALID,916.084,VALID,0.0,VALID,99.352,VALID,0.002,VALID,19.695,VALID,28.0,VALID,0.0,
2018-10-06, 03:20:07,VALID,916.104,VALID,0.0,VALID,99.343,VALID,-0.002,VALID,19.676,VALID,28.0,VALID,0.0,
2018-10-06, 03:21:07,VALID,916.119,VALID,0.0,VALID,99.298,VALID,-0.004,VALID,19.606,VALID,41.0,VALID,0.0,
2018-10-06, 03:22:07,VALID,916.096,VALID,0.0,VALID,99.307,VALID,-0.002,VALID,19.627,VALID,38.0,VALID,0.0,
2018-10-06, 03:23:07,VALID,916.104,VALID,0.0,VALID,99.313,VALID,-0.015,VALID,19.627,VALID,36.0,VALID,0.0,
2018-10-06, 03:24:07,VALID,916.091,VALID,0.0,VALID,99.291,VALID,-0.018,VALID,19.566,VALID,31.0,VALID,0.0,
2018-10-06, 03:25:07,VALID,916.087,VALID,0.0,VALID,99.323,VALID,-0.01,VALID,19.651,VALID,32.0,VALID,0.0,
2018-10-06, 03:26:07,VALID,916.081,VALID,0.0,VALID,99.326,VALID,-0.016,VALID,19.695,VALID,31.0,VALID,0.0,
2018-10-06, 03:27:07,VALID,916.077,VALID,0.0,VALID,99.259,VALID,-0.015,VALID,19.63,VALID,36.0,VALID,0.0,
2018-10-06, 03:28:07,VALID,916.113,VALID,0.0,VALID,99.226,VALID,-0.023,VALID,19.59,VALID,26.0,VALID,0.0,
2018-10-06, 03:29:07,VALID,916.088,VALID,0.0,VALID,99.222,VALID,-0.03,VALID,19.593,VALID,29.0,VALID,0.0,
2018-10-06, 03:30:07,VALID,916.092,VALID,0.0,VALID,99.235,VALID,-0.026,VALID,19.584,VALID,43.0,VALID,0.0,
2018-10-06, 03:31:07,VALID,916.081,VALID,0.0,VALID,99.245,VALID,-0.032,VALID,19.56,VALID,48.0,VALID,0.0,
2018-10-06, 03:32:07,VALID,916.071,VALID,0.0,VALID,99.279,VALID,-0.03,VALID,19.562,VALID,46.0,VALID,0.0,
2018-10-06, 03:33:07,VALID,916.054,VALID,0.0,VALID,99.285,VALID,-0.019,VALID,19.553,VALID,43.0,VALID,0.0,
2018-10-06, 03:34:07,VALID,916.048,VALID,0.0,VALID,99.247,VALID,-0.022,VALID,19.479,VALID,46.0,VALID,0.0,
2018-10-06, 03:35:07,VALID,916.053,VALID,0.0,VALID,99.25,VALID,-0.019,VALID,19.49,VALID,57.0,VALID,0.0,
2018-10-06, 03:36:07,VALID,916.07,VALID,0.0,VALID,99.251,VALID,-0.02,VALID,19.505,VALID,57.0,VALID,0.0,
2018-10-06, 03:37:07,VALID,916.091,VALID,0.0,VALID,99.228,VALID,-0.019,VALID,19.534,VALID,68.0,VALID,0.0,
2018-10-06, 03:38:07,VALID,916.106,VALID,0.0,VALID,99.159,VALID,-0.009,VALID,19.501,VALID,111.0,VALID,0.0,
2018-10-06, 03:39:07,VALID,916.137,VALID,0.0,VALID,99.098,VALID,-0.01,VALID,19.434,VALID,130.0,VALID,0.0,
2018-10-06, 03:40:07,VALID,916.166,VALID,0.0,VALID,99.108,VALID,-0.014,VALID,19.417,VALID,124.0,VALID,0.0,
2018-10-06, 03:41:07,VALID,916.177,VALID,0.0,VALID,99.102,VALID,-0.013,VALID,19.379,VALID,132.0,VALID,0.0,
2018-10-06, 03:42:07,VALID,916.198,VALID,0.0,VALID,99.107,VALID,-0.024,VALID,19.33,VALID,134.0,VALID,0.0,
2018-10-06, 03:43:07,VALID,916.184,VALID,0.0,VALID,99.144,VALID,-0.015,VALID,19.348,VALID,129.0,VALID,0.0,